GW6468 Weather Reports


Display with metric or nautical units.
time (UTC)temp
F
wind
direction
speed
MPH
gust
MPH
rain 1hr
in
rain 24hr
in
rain mn
in
humidity
%
barometer
mb
20260504194518 77 226 4.0 11.0 0.00 0.00 0.00 34 1013.9
20260504193019 77 319 6.0 13.0 0.00 0.00 0.00 32 1014.2
20260504191511 77 312 7.0 12.0 0.00 0.00 0.00 32 1014.4
20260504190019 77 295 5.0 10.0 0.00 0.00 0.00 32 1014.6
20260504184537 78 279 2.0 6.0 0.00 0.00 0.00 29 1015.0
20260504183016 77 32 3.0 5.0 0.00 0.00 0.00 32 1015.1
20260504181518 75 46 6.0 12.0 0.00 0.00 0.00 33 1015.2
20260504180016 76 27 7.0 12.0 0.00 0.00 0.00 32 1015.6
20260504174518 75 330 5.0 12.0 0.00 0.00 0.00 32 1015.4
20260504173018 74 348 4.0 12.0 0.00 0.00 0.00 34 1015.6
20260504171519 74 271 4.0 10.0 0.00 0.00 0.00 35 1015.5
20260504081517 41 137 0.0 1.0 0.00 0.00 0.00 88 1016.4
20260504050013 47 157 0.0 0.0 0.00 0.00 0.00 72 1016.6
20260504044519 47 157 0.0 0.0 0.00 0.00 0.00 74 1016.7
20260504043022 50 180 0.0 0.0 0.00 0.00 0.00 66 1016.5
20260504041507 51 202 0.0 1.0 0.00 0.00 0.00 64 1016.5
20260504040010 49 202 0.0 0.0 0.00 0.00 0.00 67 1016.4
20260504034518 48 155 0.0 0.0 0.00 0.00 0.00 69 1016.5
20260504033018 48 169 0.0 0.0 0.00 0.00 0.00 68 1016.5
20260504031524 48 169 0.0 0.0 0.00 0.00 0.00 69 1016.8
20260504030008 48 169 0.0 0.0 0.00 0.00 0.00 69 1016.7
20260504024512 49 169 0.0 0.0 0.00 0.00 0.00 67 1016.8
20260504023014 50 169 0.0 0.0 0.00 0.00 0.00 64 1016.8
20260504021522 51 169 0.0 0.0 0.00 0.00 0.00 64 1016.7
20260504020026 52 182 0.0 0.0 0.00 0.00 0.00 56 1016.3
20260504014508 54 182 0.0 0.0 0.00 0.00 0.00 56 1016.0
20260504013016 57 182 0.0 0.0 0.00 0.00 0.00 49 1015.8
20260504011519 58 182 0.0 0.0 0.00 0.00 0.00 46 1015.8
20260504010020 57 182 0.0 1.0 0.00 0.00 0.00 46 1015.6
20260504004525 57 179 0.0 0.0 0.00 0.00 0.00 52 1015.5
20260504003010 58 179 0.0 0.0 0.00 0.00 0.00 51 1015.6
20260504001511 60 186 0.0 1.0 0.00 0.00 0.00 47 1015.3
20260504000018 63 196 0.0 1.0 0.00 0.00 0.00 43 1015.3
20260503234523 64 196 0.0 1.0 0.00 0.00 0.00 38 1015.2
20260503233035 66 214 2.0 4.0 0.00 0.00 0.00 35 1015.2
20260503231508 67 262 1.0 3.0 0.00 0.00 0.00 34 1015.2
20260503230016 67 274 3.0 6.0 0.00 0.00 0.00 31 1015.3
20260503224527 67 309 3.0 5.0 0.00 0.00 0.00 31 1015.3
20260503223004 67 233 3.0 8.0 0.00 0.00 0.00 30 1015.4
20260503221508 67 286 3.0 8.0 0.00 0.00 0.00 30 1015.4
20260503220018 68 257 4.0 11.0 0.00 0.00 0.00 28 1015.6
20260503214518 69 330 5.0 13.0 0.00 0.00 0.00 24 1015.7
20260503213022 69 14 6.0 14.0 0.00 0.00 0.00 23 1015.8
20260503211505 69 313 2.0 8.0 0.00 0.00 0.00 24 1016.0
20260503210007 68 30 2.0 9.0 0.00 0.00 0.00 26 1016.1
20260503204514 68 313 4.0 13.0 0.00 0.00 0.00 24 1016.3
20260503203026 67 351 5.0 17.0 0.00 0.00 0.00 27 1016.5
20260503201524 68 34 6.0 11.0 0.00 0.00 0.00 26 1016.6
20260503200007 68 352 7.0 9.0 0.00 0.00 0.00 25 1016.7